Theta_e
310 310 310 310 310 310 310 310 310 310 310 311 311 312 312 312 312 311 311 310 310 310 309 308 307 308 308 309 308 308 308 307 308 308 309 312 311 311 312 312 313 317 318 315 319 323 321 318 319 319 324 330 333 335 339 344 347 351 354 355 355 354 358 358 356 355 354 353 353 353 353 354 354 353 350 349 348 348 347 347 347 347 347 347 346 345 346 346
310 311 311 311 311 311 310 310 310 310 310 310 310 311 312 312 312 312 312 310 310 310 310 308 307 308 308 309 309 308 308 308 308 308 311 312 311 311 311 311 312 318 319 316 318 321 319 317 318 319 324 330 333 334 341 345 347 351 354 355 356 357 358 355 352 353 352 353 353 354 353 353 354 352 350 349 348 347 348 348 348 348 348 347 346 346 346 346
312 312 312 312 312 312 312 311 311 310 310 310 310 310 311 311 312 312 312 311 311 311 311 309 308 308 307 309 309 308 308 308 308 310 312 311 311 311 311 311 312 319 320 316 318 319 318 317 320 322 323 328 332 336 342 347 350 351 352 356 358 356 355 353 351 352 352 353 354 355 354 353 353 352 351 349 347 348 348 349 349 349 349 348 348 347 347 346
313 314 313 313 313 312 312 312 312 311 311 311 310 309 310 311 311 312 312 311 311 311 311 309 308 307 307 308 308 309 308 309 310 311 313 312 312 311 311 312 312 321 321 317 318 318 318 318 320 323 325 329 334 340 344 348 353 352 351 356 355 352 354 353 350 351 352 354 355 355 354 354 354 353 350 347 348 349 348 348 348 349 349 348 348 347 347 346
314 314 314 314 313 313 312 312 313 312 311 311 310 310 309 310 311 312 312 311 311 311 310 309 308 307 307 308 308 309 308 311 316 315 317 316 315 312 311 312 313 322 323 318 318 317 319 318 318 324 328 332 337 343 346 348 351 353 352 352 352 352 355 353 350 351 353 354 355 354 354 355 353 351 348 346 349 349 348 347 347 348 347 347 348 347 347 346
314 314 313 313 313 313 312 312 313 312 311 310 310 310 309 311 311 312 311 310 310 310 309 309 308 307 307 307 308 309 308 313 320 320 320 320 319 315 312 311 314 322 324 320 318 318 320 317 319 327 331 333 338 342 344 348 349 353 355 350 351 354 354 353 351 353 353 353 354 355 355 354 351 349 348 346 347 347 347 347 347 348 347 346 347 348 348 346
314 313 313 312 312 312 312 313 313 312 312 310 310 310 311 311 311 311 310 310 310 309 308 308 308 308 307 307 308 308 308 312 317 321 320 318 319 317 313 311 314 322 323 320 319 320 321 320 322 329 332 333 337 337 339 347 349 352 354 350 351 354 355 354 354 355 354 353 354 354 354 353 351 351 351 349 347 347 348 347 347 348 347 347 347 348 348 345
314 313 312 311 311 311 312 313 313 312 312 311 311 311 311 311 311 310 310 310 309 307 307 308 308 307 307 307 307 308 308 310 317 322 321 318 317 316 315 311 314 321 322 320 320 320 321 323 327 330 333 333 335 333 334 346 351 351 349 348 352 355 355 355 355 355 354 354 353 353 355 353 351 352 352 350 347 347 348 347 348 348 348 348 348 349 349 346
314 313 312 311 310 311 312 312 312 312 312 312 311 311 310 310 311 311 311 310 307 306 306 307 307 307 307 306 307 309 310 312 317 322 321 320 318 315 314 312 314 320 322 321 319 319 320 325 329 332 333 332 333 332 332 341 349 350 348 349 354 354 355 356 356 355 355 354 353 354 355 354 351 352 352 350 348 348 348 348 348 348 349 349 348 349 349 348
314 314 313 312 311 310 312 312 312 312 311 311 310 310 310 310 312 312 313 310 306 306 306 306 307 307 307 306 308 310 313 318 319 321 322 321 321 317 313 313 314 317 320 321 319 318 319 323 329 334 334 331 331 330 332 338 341 347 348 351 354 353 353 354 355 355 355 354 354 355 355 353 351 354 355 350 348 348 347 348 348 348 349 349 348 349 348 347
314 314 314 313 312 310 311 311 310 311 310 310 310 311 312 313 314 315 316 312 307 306 306 306 306 307 307 306 307 309 316 323 322 322 323 321 321 320 316 314 314 315 316 318 319 317 318 322 329 334 332 329 330 327 330 333 335 347 352 354 354 352 352 352 353 354 354 354 354 353 354 353 351 356 356 349 349 349 347 348 348 348 349 349 349 349 347 346
315 315 314 314 313 310 310 311 309 309 309 311 314 315 316 317 317 317 318 315 309 306 306 306 306 306 306 306 308 309 317 325 323 323 324 321 319 319 318 316 314 315 315 315 317 316 318 324 328 332 330 328 329 327 328 327 333 351 356 355 353 351 350 350 351 353 354 354 353 353 354 354 354 356 353 348 349 349 348 349 349 349 349 349 349 349 348 346
315 314 314 314 313 311 309 309 309 309 311 314 317 317 317 317 319 319 319 316 312 308 307 307 306 307 306 307 309 310 317 323 323 324 325 322 319 318 318 318 315 314 315 314 315 315 318 325 328 329 328 326 327 328 328 324 335 355 355 354 354 352 350 350 350 351 353 353 352 353 355 356 356 355 351 348 349 349 349 350 349 350 349 349 350 349 349 349
315 315 314 313 314 312 309 309 310 310 313 316 316 315 315 316 318 320 320 317 313 309 309 308 307 308 308 309 310 310 317 324 324 324 324 323 321 320 318 319 318 317 316 315 315 315 317 325 328 328 328 327 327 327 327 330 346 357 355 355 356 354 353 351 350 350 354 353 351 353 355 357 356 354 351 349 349 349 349 349 349 350 350 350 350 350 350 349
315 315 314 313 314 312 311 311 312 312 314 315 314 313 314 315 317 319 320 319 315 311 313 313 310 311 312 312 311 311 316 322 322 321 322 323 323 321 318 318 318 318 317 316 315 314 315 319 323 326 327 327 327 326 332 344 355 356 355 356 355 354 353 352 350 351 354 352 350 353 355 357 357 354 352 350 349 348 348 349 349 350 350 350 350 350 350 349
315 314 314 313 313 313 312 312 313 313 314 313 313 314 315 316 316 317 320 321 317 313 315 316 313 312 314 315 314 315 316 318 319 319 320 322 323 321 318 317 318 318 317 316 315 316 317 316 319 324 325 327 326 327 341 353 353 354 357 356 353 353 352 353 351 349 352 352 351 354 356 358 357 354 352 350 350 348 348 348 348 350 349 350 350 349 350 349
315 315 314 314 314 314 313 314 314 313 313 314 315 316 316 317 316 317 320 321 319 316 317 317 315 314 315 315 316 319 319 318 320 321 321 321 322 321 318 316 317 317 316 314 313 316 319 318 322 325 324 325 323 329 349 353 351 351 354 355 354 353 354 355 353 350 351 353 353 354 356 357 355 354 353 350 350 348 347 348 348 349 349 349 350 349 350 349
315 315 314 314 314 314 314 314 314 314 315 316 316 317 316 317 317 316 319 321 319 317 318 318 316 317 317 316 318 320 319 319 320 321 321 321 321 321 318 316 316 316 314 314 314 315 319 320 323 326 324 323 321 326 342 349 350 349 350 354 354 353 354 355 355 352 351 354 355 355 357 356 352 353 354 350 351 349 348 348 348 349 349 349 349 349 350 349
315 315 315 314 314 314 314 314 314 316 317 317 318 317 317 317 317 317 318 319 319 318 319 318 317 318 318 317 319 318 317 319 320 321 322 322 321 321 319 316 316 315 315 317 317 316 319 321 322 325 325 324 323 324 331 338 342 344 351 356 352 353 354 355 357 353 352 356 356 355 355 354 352 353 354 351 351 350 349 348 348 349 349 349 349 349 349 349
315 315 315 314 314 314 315 314 316 317 317 318 318 318 318 318 317 318 317 317 318 318 318 317 317 317 317 317 318 317 318 320 320 322 323 322 322 321 319 317 316 317 317 319 320 319 321 325 325 326 326 325 324 324 325 327 328 334 348 355 352 353 354 356 359 353 353 357 356 355 353 351 352 352 353 352 351 351 350 349 348 348 348 349 349 349 349 349
315 315 316 315 315 315 315 316 316 317 318 318 319 319 319 318 318 318 316 316 318 318 318 318 317 317 317 317 317 316 318 320 320 322 322 321 322 321 319 318 319 319 319 319 320 320 323 326 326 325 325 324 324 325 325 322 323 325 337 352 353 351 354 358 360 354 353 357 356 354 353 352 353 353 353 352 351 352 350 349 348 347 348 349 348 348 348 348
315 316 316 315 315 315 316 316 316 317 318 318 319 320 319 319 320 318 316 317 318 319 318 318 317 317 317 317 317 317 318 319 320 321 321 320 321 321 318 319 322 322 320 321 322 323 323 325 326 323 320 321 322 324 323 322 324 322 326 347 353 353 358 358 357 355 352 355 356 353 353 354 354 352 352 351 351 352 350 349 349 348 348 348 348 348 348 348
313 315 316 316 315 315 316 317 317 317 318 318 319 319 319 319 320 319 317 316 318 319 318 317 317 316 316 317 317 318 318 320 320 320 321 320 320 321 319 319 323 323 321 324 326 325 324 325 324 319 317 321 321 321 322 321 322 322 323 339 353 354 357 358 354 353 350 350 353 354 354 356 354 353 351 350 351 352 350 349 348 348 348 348 348 348 348 347
311 314 315 316 316 315 316 316 318 318 318 318 319 319 319 320 320 319 318 318 319 320 317 316 317 316 317 317 317 318 318 319 320 320 321 321 321 321 320 321 323 323 323 325 327 326 327 324 320 318 319 322 323 320 321 321 320 322 320 329 353 357 355 359 354 349 350 349 351 353 354 355 355 355 353 349 350 351 350 349 348 348 348 348 347 348 348 347
310 311 314 316 315 315 316 316 317 318 317 317 319 319 319 320 320 319 320 321 322 320 316 315 316 315 316 317 316 316 317 319 321 322 322 322 323 322 321 320 322 323 324 325 325 326 326 323 319 321 322 321 324 322 322 323 319 321 319 325 354 363 357 359 354 350 353 353 351 351 351 353 355 355 353 351 351 351 350 349 348 348 348 348 347 347 348 347
309 310 312 314 315 316 315 316 317 316 317 318 318 319 319 320 321 320 321 323 321 316 315 314 314 314 315 316 316 316 319 320 320 321 323 323 323 322 321 321 321 323 324 323 324 326 325 322 320 324 324 322 324 323 323 323 318 320 320 322 349 364 359 356 353 352 353 352 352 350 350 351 351 353 353 352 353 352 351 350 348 348 348 348 348 347 347 347
309 310 311 313 315 315 315 316 316 316 316 317 318 319 319 320 321 320 322 325 321 313 313 315 313 314 315 314 316 318 320 320 319 321 323 323 323 322 323 322 321 322 322 321 323 324 323 322 322 323 324 324 324 323 323 321 319 322 320 324 348 362 359 355 353 353 353 351 352 351 352 352 350 352 352 351 353 353 352 351 349 348 349 348 348 347 346 346
309 309 310 312 313 315 316 315 316 316 316 317 318 318 319 321 321 321 322 321 318 313 313 314 313 314 314 314 316 317 318 318 317 320 322 323 322 322 324 324 324 324 321 321 324 324 322 323 325 324 323 323 324 326 324 319 321 323 322 334 353 357 356 355 353 353 352 351 353 350 348 352 353 353 351 350 353 355 354 351 350 349 349 348 348 348 346 345
309 309 310 311 312 314 315 315 316 316 316 317 318 319 321 320 319 324 326 319 314 314 314 314 314 314 314 314 315 315 316 316 317 319 321 323 322 322 324 322 323 324 321 321 325 325 321 322 323 323 324 324 325 326 322 320 323 321 328 342 350 350 350 351 350 351 351 349 351 350 346 350 353 352 351 352 353 355 354 351 350 349 349 349 348 348 347 346
309 309 310 310 312 313 315 316 316 316 317 317 318 320 320 320 325 331 326 317 314 315 315 314 314 314 314 315 315 314 315 315 316 318 321 322 322 322 322 321 321 324 325 323 324 324 321 320 321 322 323 323 325 323 319 321 321 321 337 348 345 346 349 350 351 349 349 348 347 349 348 346 348 350 352 353 352 352 352 352 351 350 348 349 348 348 347 346
309 310 309 310 311 313 314 315 315 316 317 317 319 320 318 321 333 332 321 315 316 316 316 316 316 314 314 315 315 315 315 315 316 319 322 322 322 322 322 323 323 326 330 328 325 323 320 320 321 322 322 321 322 321 318 320 318 322 345 350 344 348 350 351 352 349 349 348 344 347 349 345 345 350 351 352 353 351 351 353 353 351 349 349 348 348 347 347
310 309 309 311 311 313 314 315 316 316 317 319 319 320 321 323 326 323 318 316 317 316 315 316 316 315 315 316 316 315 316 315 316 321 323 322 323 323 323 327 326 324 328 328 324 321 321 322 322 322 322 320 321 323 319 318 316 325 347 351 347 348 348 349 348 346 348 346 342 346 348 346 349 351 349 348 350 351 351 352 352 351 350 349 349 348 347 347
310 310 310 311 311 313 314 315 317 317 318 320 318 320 326 326 320 319 321 320 315 314 316 316 316 315 316 318 317 316 316 316 317 319 319 320 323 321 320 324 324 322 324 324 321 319 320 321 321 321 322 321 321 322 320 320 318 324 341 347 348 348 347 348 344 343 346 342 340 346 348 348 350 348 346 346 346 348 350 351 351 350 350 349 349 348 347 348
310 311 311 311 313 314 314 316 317 318 319 319 320 324 326 322 320 322 324 322 316 316 317 316 317 318 318 318 317 316 317 318 318 317 317 320 323 322 321 321 318 319 322 321 320 320 319 320 323 323 322 321 322 321 323 326 319 320 338 347 347 346 346 347 344 343 345 342 342 344 346 349 348 343 345 345 342 345 349 351 351 350 350 350 349 348 348 349
312 313 312 314 315 314 316 318 317 319 320 318 324 330 324 320 322 322 321 321 318 317 317 316 317 321 320 318 318 316 318 319 318 319 320 318 319 321 321 319 317 318 319 319 322 322 319 322 327 324 320 321 322 320 322 325 318 318 333 344 344 346 346 344 341 340 342 344 346 344 344 350 350 345 347 346 343 346 349 351 352 351 350 350 349 348 349 349
315 315 315 316 316 316 318 318 318 320 319 321 329 327 321 321 322 320 320 319 316 316 319 318 317 321 321 320 321 318 318 319 320 327 327 318 316 319 317 317 317 317 318 320 323 323 318 322 327 323 321 322 322 321 321 321 320 322 328 335 339 342 344 341 336 335 339 342 344 343 347 354 351 345 348 350 349 349 350 350 351 352 351 350 349 348 349 349
317 316 317 317 316 317 317 317 320 319 317 325 332 326 323 322 319 320 323 318 314 318 325 322 317 318 319 319 320 319 319 319 319 327 326 317 317 318 315 317 316 315 318 318 320 322 318 321 326 323 322 321 319 321 321 321 323 324 324 328 330 330 335 340 338 340 342 340 341 344 349 353 349 345 348 353 354 353 352 351 351 351 351 350 349 348 349 349
318 318 318 318 317 317 317 318 320 318 320 331 335 330 326 322 316 317 319 314 314 322 327 323 317 316 319 319 319 319 320 320 321 325 323 317 318 317 314 316 315 315 315 314 317 321 318 321 327 325 322 322 323 323 322 321 322 325 325 325 327 328 330 331 335 341 342 341 346 348 346 348 349 350 352 352 352 354 355 353 352 351 351 351 349 348 348 348
319 320 319 318 318 317 318 320 318 318 325 331 333 330 324 321 319 316 315 314 315 320 322 320 317 318 318 319 319 319 319 320 321 324 323 318 318 316 314 315 316 315 314 315 320 323 320 320 324 326 320 320 326 327 324 324 322 323 324 322 326 333 332 327 330 340 344 344 349 349 345 349 353 353 354 351 348 351 354 354 352 352 351 351 349 349 349 347
320 322 320 319 319 318 318 319 318 321 326 324 327 329 321 318 319 314 315 315 315 317 319 318 320 321 319 319 318 317 319 320 320 322 322 318 317 317 315 314 314 315 314 316 321 322 322 320 321 329 326 320 326 327 325 328 325 323 324 323 323 326 327 326 327 335 346 349 348 346 346 352 351 347 349 349 346 348 352 353 352 350 350 351 350 350 350 348
319 321 320 318 319 319 319 320 319 320 324 322 322 325 320 319 317 313 316 317 315 316 316 318 322 321 320 320 318 317 321 322 321 322 321 317 315 317 317 314 314 315 316 320 322 321 324 324 322 327 325 319 323 325 324 325 327 330 328 324 326 325 325 327 324 327 343 349 346 345 349 351 346 342 344 345 345 346 348 349 350 350 350 350 350 351 350 350
319 321 321 318 319 319 319 321 320 317 322 323 320 319 319 318 315 313 316 317 315 316 316 318 320 319 319 319 318 320 324 323 321 321 320 316 315 316 317 316 316 316 317 321 320 319 324 328 326 328 328 324 323 323 320 319 322 327 325 322 327 326 328 333 329 330 340 344 343 343 347 347 342 341 343 343 343 345 345 347 348 348 348 348 349 350 350 351
319 320 320 318 319 318 317 322 322 319 322 321 315 315 315 314 313 315 316 317 317 316 316 317 317 318 319 318 320 323 322 320 320 320 320 318 317 317 316 317 319 319 321 322 320 320 326 328 330 335 336 330 329 327 323 321 323 324 323 322 321 320 327 336 339 343 344 345 346 343 344 347 342 339 341 341 342 342 342 345 346 344 345 347 348 349 349 351
319 319 319 317 318 317 318 322 321 324 328 321 314 315 314 312 314 316 316 317 317 316 318 318 317 317 319 318 321 323 319 319 319 319 319 319 318 318 316 317 318 320 324 326 323 322 324 326 331 334 327 320 326 330 326 325 328 326 325 323 321 325 334 335 340 349 348 344 345 342 342 347 342 338 340 339 340 341 340 342 343 341 343 344 346 347 348 349
319 318 316 316 317 317 317 318 317 322 327 321 315 316 316 313 314 315 316 316 316 316 319 320 317 317 320 321 321 321 320 320 320 321 322 321 321 319 317 316 316 319 324 325 325 327 327 328 332 335 329 322 325 328 325 324 327 326 325 325 324 328 337 338 339 346 345 341 342 343 345 346 341 339 340 339 339 339 338 340 340 340 341 342 343 346 347 349
320 320 320 319 317 315 315 313 313 317 322 324 320 315 315 316 314 314 316 316 317 317 317 318 318 320 324 324 324 324 323 322 321 323 323 324 324 320 316 317 316 317 322 320 321 329 333 328 328 332 332 327 326 329 331 328 325 324 324 325 324 324 333 343 341 340 342 341 343 348 347 345 344 341 340 339 338 338 338 338 338 337 338 339 341 344 346 347
322 322 324 326 320 315 316 316 313 313 316 321 319 315 317 318 316 316 316 315 317 317 316 316 317 322 324 324 325 324 325 325 322 321 321 322 326 322 315 316 316 316 320 318 317 331 340 333 327 327 325 320 321 326 329 327 323 322 324 325 326 329 337 343 337 333 339 341 344 347 346 345 345 342 339 340 339 338 338 337 336 335 336 338 341 343 344 344
323 321 322 325 320 316 319 321 318 316 317 320 318 316 318 319 318 319 317 316 316 317 319 318 315 318 321 324 326 322 323 327 322 319 321 320 323 323 316 316 317 315 317 317 317 329 339 335 329 326 322 319 319 319 321 325 324 322 323 323 326 335 344 345 341 338 340 342 344 347 344 344 345 341 339 339 338 338 338 335 334 335 336 339 342 342 342 343
321 322 323 325 321 318 322 324 319 317 321 327 324 318 318 319 318 316 315 318 319 317 319 319 316 316 319 325 330 322 319 323 318 316 319 318 319 322 319 319 319 314 317 319 318 322 330 333 331 328 324 321 320 319 319 324 325 324 324 321 323 333 342 347 347 344 343 343 344 343 343 344 343 340 338 338 338 338 336 334 334 334 335 338 341 341 341 342
322 324 324 326 326 324 324 321 318 319 321 323 322 317 316 318 317 315 313 316 319 318 317 318 316 316 318 324 326 319 316 319 316 313 316 318 319 320 319 319 317 316 320 322 319 320 324 328 330 333 331 324 322 322 320 322 326 325 324 322 322 329 337 342 344 345 346 345 340 340 345 345 340 338 337 336 336 335 334 333 332 331 334 337 338 339 339 340
323 324 323 328 331 328 325 319 316 321 320 319 321 320 319 318 315 314 314 313 316 318 318 318 318 318 321 322 320 315 314 315 315 314 314 315 315 315 317 317 315 317 322 321 320 324 325 327 331 337 336 327 324 325 324 326 330 326 323 323 324 327 332 333 335 340 344 345 342 342 347 344 338 336 336 335 334 334 332 331 330 330 333 336 336 337 338 338
322 322 323 329 330 327 326 321 317 319 316 316 321 321 319 317 312 313 316 314 314 316 315 316 316 318 321 320 316 315 313 313 315 315 313 313 313 313 314 314 314 316 320 320 321 325 328 331 332 332 331 327 326 328 329 333 334 329 324 322 323 329 335 336 337 337 337 339 342 343 343 340 336 335 335 334 333 332 331 330 330 330 331 334 335 335 335 336
Wind_Speed
11 11 10 10 10 9 9 8 7 6 6 6 6 6 7 7 8 9 9 9 9 9 9 9 9 10 10 10 10 9 10 12 13 18 18 10 9 13 11 12 14 17 19 22 24 22 18 16 14 13 13 12 9 6 10 10 6 2 1 1 3 2 2 3 5 5 6 8 8 10 10 9 9 11 16 17 18 19 15 15 14 11 17 21 24 32 30 28
10 10 11 11 10 10 9 9 8 8 7 7 7 6 7 7 8 9 9 10 9 9 9 9 9 10 10 10 10 10 11 12 15 19 13 5 9 15 14 14 16 18 20 23 24 22 19 17 15 15 13 10 7 6 8 8 7 5 1 1 3 2 2 2 8 8 8 12 11 11 10 10 12 15 18 13 11 17 16 15 19 21 22 22 28 32 28 28
11 11 11 11 11 11 10 9 8 8 7 7 7 7 7 7 8 9 10 10 10 10 10 9 9 10 10 9 9 10 11 12 16 17 8 6 11 14 16 17 18 18 19 21 22 20 17 16 16 16 14 9 6 8 8 6 6 6 3 1 3 3 4 2 14 13 11 17 14 11 11 11 12 14 15 12 11 13 12 15 20 25 28 30 32 31 29 28
12 12 12 12 12 11 11 10 9 8 7 7 7 7 7 8 8 10 11 11 11 11 11 10 10 10 9 9 8 9 11 12 11 11 7 8 11 13 17 19 19 19 19 21 20 19 16 15 16 16 13 6 6 8 6 7 5 4 5 2 2 1 4 3 15 16 15 18 16 14 13 10 9 11 15 18 12 5 11 22 24 28 35 36 34 32 30 28
14 13 13 12 12 12 12 11 10 8 6 6 6 6 6 7 8 9 11 11 12 13 12 11 10 10 9 8 8 7 7 6 2 4 4 6 9 12 16 19 19 20 21 22 22 20 16 16 17 14 10 5 5 5 5 11 8 2 5 8 4 2 1 5 13 17 17 15 15 15 12 10 10 12 17 16 7 5 15 25 28 33 39 38 36 34 30 29
16 15 15 14 14 13 12 11 10 8 6 5 5 5 5 6 7 8 10 12 13 14 13 12 10 10 8 7 7 7 4 1 2 4 4 4 7 10 14 18 21 21 21 22 23 21 17 17 17 13 8 3 4 5 5 12 12 3 4 8 5 5 4 8 14 16 19 17 13 12 11 13 14 12 13 8 4 10 18 23 28 32 36 38 35 32 31 30
18 18 17 17 16 15 14 12 9 7 5 4 3 3 5 6 7 9 10 12 13 13 13 11 9 9 7 6 6 6 8 6 1 2 3 2 5 9 14 18 22 23 22 22 23 22 19 18 17 12 7 2 3 5 4 8 12 6 4 5 5 10 9 13 16 16 18 18 14 14 14 14 15 11 8 8 9 15 19 22 28 31 34 35 32 30 29 29
20 20 20 20 19 18 17 13 9 6 4 3 3 3 5 6 8 10 11 12 13 13 11 10 8 7 5 5 6 6 9 7 2 5 3 1 4 10 16 20 23 24 23 22 22 22 20 18 17 12 6 2 2 3 4 4 8 8 5 2 7 11 12 16 18 17 16 16 17 17 12 9 13 12 7 8 13 18 20 24 29 31 32 32 31 28 27 27
21 21 21 21 21 20 18 14 10 6 4 5 5 6 7 7 9 10 12 13 13 12 10 8 8 6 4 4 5 5 6 4 4 6 4 2 1 8 16 21 24 25 23 21 20 21 20 18 17 12 6 5 4 2 5 3 4 9 8 4 9 12 15 17 18 18 17 16 18 15 9 9 14 11 7 7 17 21 22 27 30 32 31 30 30 27 27 26
21 22 22 21 21 20 18 15 11 8 7 7 7 8 9 9 10 12 13 14 13 12 9 7 6 5 4 4 3 2 3 3 5 6 5 4 2 4 13 19 21 23 23 22 20 19 20 18 18 15 5 3 3 6 6 5 4 8 10 8 13 16 14 13 14 16 17 15 15 13 8 8 11 6 3 9 21 25 26 28 30 31 30 29 28 27 27 25
21 22 22 21 20 19 17 15 12 10 9 9 9 10 11 11 13 13 14 14 13 12 9 7 5 5 4 5 6 5 2 2 6 8 6 5 3 3 7 14 17 19 21 22 21 19 18 17 18 15 4 2 3 9 7 5 6 7 16 13 14 16 12 8 9 12 13 7 11 16 10 6 5 1 4 15 24 28 30 29 29 30 28 27 27 27 26 25
20 20 21 21 20 18 16 14 12 10 9 10 11 11 12 13 13 14 13 13 12 11 10 7 5 4 4 7 11 8 3 4 7 8 6 5 4 3 4 9 15 16 17 18 21 19 17 15 17 13 4 1 3 6 5 11 7 13 18 10 10 12 8 2 4 9 8 4 13 18 9 3 2 1 9 21 25 29 31 30 28 28 27 26 26 27 26 25
18 19 20 20 19 17 14 13 11 10 10 10 10 11 13 13 13 12 11 11 11 11 10 8 7 6 5 8 9 6 6 6 6 8 7 5 5 6 5 8 13 15 16 16 17 18 17 15 17 14 6 3 4 5 9 14 3 12 9 6 9 7 2 3 5 7 5 8 16 13 4 4 2 3 13 22 26 30 29 29 28 27 26 25 26 26 26 26
17 18 19 19 18 17 14 12 11 10 10 10 11 12 13 14 12 11 9 10 10 9 10 9 8 7 6 8 5 4 9 8 7 7 7 6 5 6 7 9 12 13 16 16 13 15 17 16 14 12 8 6 7 9 11 8 3 8 4 4 5 3 4 5 7 7 4 10 11 3 1 5 2 5 14 21 26 30 28 28 28 26 26 25 25 26 26 27
15 16 17 17 17 16 13 11 10 10 9 10 12 14 15 14 13 11 8 8 9 8 10 10 8 8 10 10 3 4 9 8 6 6 6 7 5 5 7 11 13 12 13 14 10 10 15 17 13 8 6 7 7 7 6 3 3 3 4 3 2 4 3 3 5 6 2 7 7 2 1 3 1 6 14 19 24 28 26 27 28 26 26 25 25 26 26 26
14 15 16 16 16 14 12 9 9 10 11 12 14 15 15 14 14 12 8 8 8 8 11 10 8 8 9 6 0 3 5 5 4 4 7 8 6 4 4 9 13 11 10 10 9 10 11 13 11 7 5 5 2 2 3 2 1 1 2 3 3 5 4 3 3 3 2 5 5 3 2 1 1 8 15 18 21 25 24 25 28 27 26 26 26 26 26 26
13 14 14 15 14 13 10 8 8 10 12 13 14 15 15 14 14 13 8 8 8 9 12 10 8 9 5 0 3 3 1 1 3 5 5 7 8 5 3 8 12 11 8 9 10 11 11 10 8 5 4 1 2 4 3 1 2 1 2 3 3 6 7 5 2 5 6 7 5 2 2 2 2 8 16 18 20 22 22 24 27 27 26 26 26 26 26 26
13 13 14 14 13 11 9 7 8 10 12 13 14 16 16 14 15 14 8 8 10 10 9 6 6 5 1 1 1 1 6 5 4 5 4 5 9 6 3 7 10 12 11 10 9 11 10 8 5 1 1 1 2 4 3 3 2 2 3 3 3 4 6 6 3 7 11 8 6 3 2 2 3 8 14 17 20 20 20 23 25 26 26 26 26 26 26 26
13 13 13 13 12 10 8 8 8 9 12 12 13 14 13 15 16 10 5 10 11 6 5 5 5 3 4 5 5 7 9 3 5 8 6 3 7 8 4 5 9 13 12 6 5 9 9 5 3 1 2 2 4 5 6 5 3 5 4 3 5 4 3 5 4 8 14 10 7 6 3 4 4 8 12 17 20 18 17 20 22 24 25 26 26 26 27 27
13 12 12 12 11 9 7 8 9 9 11 12 13 11 10 15 11 5 9 16 13 7 8 11 11 11 11 9 7 9 6 3 6 7 7 3 5 9 7 5 7 9 7 6 4 7 9 5 2 4 4 4 5 6 6 3 3 6 5 3 5 4 3 4 3 8 14 8 6 7 5 5 6 7 11 17 19 15 15 17 19 22 23 26 26 26 28 28
13 12 12 11 10 9 7 8 9 8 10 10 11 10 9 13 8 6 14 17 15 13 12 10 10 13 12 9 9 11 5 3 7 6 5 4 6 8 8 6 5 3 3 7 8 5 7 4 5 6 6 5 5 6 5 2 4 5 4 4 3 4 3 2 3 9 12 6 5 8 7 6 7 6 9 16 17 14 18 19 20 21 21 25 26 27 28 28
13 13 12 11 10 10 7 7 8 7 8 8 8 9 11 14 11 10 10 10 16 16 10 7 9 11 11 9 9 5 1 2 7 8 4 5 8 7 7 6 4 2 2 4 8 5 3 3 7 7 5 5 2 3 4 2 3 3 3 4 3 3 3 2 2 6 5 2 3 7 7 5 6 7 8 15 17 16 20 21 21 22 20 23 27 27 28 26
13 13 12 11 10 10 9 8 7 6 8 7 6 9 13 14 14 12 5 6 12 11 8 7 8 10 11 8 4 2 2 1 4 8 7 8 10 8 9 6 3 3 1 3 6 5 3 4 7 7 7 7 3 2 4 4 3 2 3 4 2 4 3 2 2 5 3 3 3 5 4 2 5 7 7 13 17 15 17 19 20 20 18 22 27 27 28 28
13 12 12 12 10 10 10 9 6 6 8 7 5 8 11 13 14 11 7 5 5 6 9 9 7 9 9 6 3 3 2 0 2 6 9 10 10 8 7 6 4 3 2 4 7 6 4 5 3 6 7 7 5 3 4 5 0 2 2 4 3 5 4 3 6 7 5 3 5 5 2 2 5 8 6 9 14 14 15 16 17 18 16 18 23 27 29 29
14 12 12 12 11 11 11 10 6 6 9 6 5 8 10 13 14 10 8 4 2 7 10 7 7 8 7 5 4 4 2 0 2 5 9 12 10 7 4 5 4 2 3 5 6 4 6 6 4 6 4 4 6 4 4 5 2 3 3 6 6 7 6 7 9 8 4 2 7 7 3 2 3 6 6 7 11 12 14 16 18 20 18 16 21 26 28 29
15 13 12 11 11 11 12 10 6 9 11 5 5 10 12 13 14 10 6 4 1 6 7 5 5 5 3 5 4 2 2 2 1 4 9 10 9 6 4 2 2 2 5 5 3 2 3 3 5 6 5 5 5 3 4 5 5 2 5 7 8 8 8 11 11 7 2 3 7 6 3 1 2 4 5 7 10 11 13 16 19 23 21 19 22 26 28 29
15 13 12 11 11 11 12 10 9 12 11 6 8 12 13 15 13 8 4 4 3 4 4 4 3 3 3 4 3 1 1 3 1 3 9 11 8 6 4 2 1 2 4 4 2 2 2 3 4 4 5 5 4 2 4 6 7 2 4 6 9 9 10 13 11 5 2 4 4 4 2 2 3 3 5 6 10 12 12 13 18 23 24 22 24 26 28 29
15 13 11 10 10 11 12 11 11 12 8 7 10 12 15 16 9 3 3 3 3 4 3 4 4 5 5 3 2 2 1 2 1 1 7 12 8 4 3 4 5 4 2 5 3 4 2 4 4 4 4 3 4 5 6 8 5 5 4 5 7 8 8 10 7 3 3 4 3 5 2 2 3 2 6 6 8 12 13 13 17 24 27 24 23 27 28 28
14 13 11 10 9 11 11 11 11 9 7 9 11 13 17 13 3 2 5 2 3 3 2 4 5 6 4 2 3 4 2 0 2 1 5 10 8 2 1 4 6 4 1 5 4 5 2 4 6 6 4 4 5 6 8 9 4 4 3 4 5 6 6 5 4 4 4 2 3 7 5 2 2 2 6 7 7 11 13 12 16 26 30 27 24 27 29 29
13 12 11 9 8 10 10 9 8 7 9 11 13 16 17 7 3 4 4 1 1 3 4 4 5 4 1 1 2 2 2 2 1 2 3 5 6 2 1 2 4 4 2 3 1 5 5 4 3 3 5 7 6 7 10 11 8 3 5 6 7 7 5 5 3 4 4 2 3 8 8 3 1 3 6 7 5 8 11 9 12 22 27 27 26 27 30 31
12 11 10 8 7 8 8 6 5 8 11 12 15 18 10 1 3 5 1 2 1 4 6 4 4 4 3 2 2 3 1 1 1 3 3 2 3 1 3 2 1 3 3 4 2 4 5 3 2 4 9 8 4 4 7 9 8 4 4 4 5 4 4 4 3 4 3 3 3 6 8 4 1 4 6 9 4 4 11 11 11 17 25 28 27 26 29 31
12 10 9 7 6 7 7 5 6 10 11 13 19 14 2 2 4 2 1 3 2 3 4 2 3 4 2 2 2 3 1 1 2 3 2 2 3 1 1 2 2 1 3 2 2 4 4 4 4 4 9 9 6 2 1 1 4 5 4 5 5 2 2 2 1 1 2 4 3 5 8 3 4 5 5 10 9 5 11 15 17 21 27 30 28 26 26 28
10 8 6 5 4 5 6 5 7 9 11 16 17 7 5 4 2 1 3 2 1 3 3 2 4 3 3 3 3 3 2 2 3 4 2 2 4 2 0 1 4 3 1 3 1 3 2 5 3 2 6 9 9 4 2 1 4 6 5 5 5 3 2 1 1 1 2 4 1 5 7 1 4 3 2 7 10 10 12 18 25 28 30 31 29 25 23 24
8 5 4 2 2 3 4 3 6 8 13 17 10 3 6 4 1 2 3 3 2 3 3 2 5 4 4 3 2 2 3 3 3 4 4 3 4 2 2 3 2 3 2 2 0 1 2 3 5 5 4 7 9 7 7 6 5 6 5 5 5 4 4 3 3 2 3 2 1 4 4 2 2 2 4 7 9 12 15 18 25 28 30 30 26 21 21 22
6 4 2 1 2 4 4 2 5 8 15 16 7 6 5 1 3 2 2 4 2 2 3 4 4 5 5 3 3 2 4 2 3 5 5 4 3 1 2 2 2 2 3 2 2 2 3 4 7 4 2 8 8 7 8 8 3 3 3 5 4 5 5 3 3 4 3 2 1 2 3 3 3 3 6 5 2 10 15 18 22 26 27 28 24 20 21 24
6 4 2 3 4 4 3 2 5 9 14 11 7 5 1 3 2 2 2 2 1 1 2 4 5 5 4 4 3 6 7 3 2 4 3 2 2 2 2 2 1 2 3 3 2 1 1 4 6 3 1 6 8 8 8 7 4 1 3 4 4 5 7 5 1 1 3 3 1 1 2 3 1 2 6 6 5 6 11 16 21 25 28 28 27 23 21 23
5 3 2 3 2 4 3 2 4 9 12 8 6 2 1 2 3 4 2 2 2 1 4 3 3 3 2 3 3 6 6 5 3 3 1 1 2 3 3 3 1 1 2 3 2 1 2 3 6 1 3 6 8 10 5 5 7 5 3 6 3 3 4 4 2 2 3 2 1 0 1 3 1 1 4 6 5 4 5 11 17 22 27 28 29 29 26 25
5 3 2 2 3 5 3 2 5 9 9 6 3 2 1 1 2 4 4 2 1 2 5 3 1 1 1 1 3 5 4 3 3 2 2 2 2 1 3 3 2 1 1 3 2 1 2 1 7 2 3 3 2 7 2 1 4 4 5 7 5 3 1 2 3 2 2 2 2 2 2 2 2 3 1 3 2 2 5 8 11 15 21 25 29 33 33 31
5 3 3 2 3 4 2 3 6 8 7 4 2 2 1 2 4 4 4 2 2 4 3 1 0 2 1 1 1 4 3 2 1 2 2 2 1 0 3 2 4 5 4 3 3 2 1 1 4 4 2 1 3 4 3 2 1 3 4 4 2 3 4 3 3 3 4 3 2 1 2 2 4 3 3 3 2 3 6 7 8 11 17 24 28 31 33 34
4 2 3 2 2 3 2 4 6 6 5 2 2 2 1 3 4 8 7 1 1 3 1 1 1 2 1 1 0 2 2 3 2 2 2 1 1 2 3 3 3 6 5 3 3 1 0 1 3 5 3 0 1 1 5 6 3 3 4 2 1 2 3 3 2 2 4 4 3 2 1 4 4 2 3 4 3 4 8 8 8 10 14 20 25 28 32 35
4 2 1 1 1 3 3 2 3 4 3 0 2 2 2 2 4 9 11 7 3 4 3 2 2 2 0 1 1 1 2 3 2 3 2 2 2 1 5 7 4 4 4 4 3 1 0 1 2 3 4 2 2 3 4 6 6 5 4 4 4 3 4 4 1 1 2 4 4 4 3 5 3 1 2 3 5 6 9 11 10 11 13 15 18 23 27 30
3 2 2 2 0 3 2 2 2 2 2 1 2 3 3 4 3 7 11 10 6 4 3 2 2 1 1 1 1 1 3 2 2 2 2 1 1 1 6 13 8 3 1 1 2 2 2 2 1 2 1 1 3 4 1 3 4 5 4 3 4 3 5 5 4 3 2 3 2 3 1 4 3 1 1 3 6 8 10 13 13 12 13 14 16 18 21 23
3 3 1 1 1 4 3 2 3 2 0 3 3 2 3 3 3 5 7 8 6 4 3 2 0 1 2 1 1 3 3 2 1 2 2 1 1 1 7 14 10 3 2 1 3 1 2 2 2 3 3 3 5 6 3 1 5 5 3 2 2 1 3 4 5 4 4 3 2 3 1 4 3 1 5 7 9 11 11 14 15 14 13 14 15 16 17 19
3 3 2 1 3 5 3 1 1 1 3 3 1 3 2 3 4 5 4 5 5 2 1 2 1 2 2 1 3 2 1 2 2 2 2 1 1 3 9 17 14 6 4 2 3 2 2 2 2 2 2 3 4 6 5 4 4 3 2 3 2 2 5 5 3 4 3 4 4 4 3 4 2 3 7 9 10 10 10 12 16 16 15 15 15 16 16 17
1 2 2 2 5 7 2 1 3 2 2 0 3 3 2 3 5 5 3 4 6 3 2 1 2 2 2 2 4 3 3 3 2 2 3 1 2 4 9 17 15 9 7 6 4 2 2 2 2 3 4 4 2 0 2 4 4 2 2 5 4 3 6 5 3 4 2 4 4 4 4 3 2 6 8 8 9 9 9 12 15 17 18 17 16 16 16 16
1 1 2 3 4 6 1 3 2 3 3 3 3 2 3 2 2 5 5 4 6 6 5 4 3 2 4 4 4 5 5 3 2 3 3 3 3 4 7 12 17 16 13 12 9 3 3 3 3 4 5 3 4 5 5 2 2 4 6 7 6 2 3 6 5 3 4 5 3 4 5 6 8 10 10 10 10 10 10 12 15 16 18 18 18 18 17 16
2 1 1 2 1 1 2 5 6 1 4 3 2 0 2 1 2 5 6 3 5 6 5 6 6 3 2 3 4 3 5 5 4 4 2 3 3 4 5 8 16 20 14 12 12 4 4 4 5 3 3 1 1 3 5 2 4 4 7 7 8 6 1 6 4 4 6 7 2 5 7 10 11 12 12 12 12 10 11 14 16 17 19 19 19 19 18 17
2 2 2 2 0 1 1 5 8 5 3 4 2 1 2 3 2 2 2 3 5 6 3 4 7 5 1 1 4 2 4 5 5 4 2 3 2 4 6 5 10 18 13 8 10 5 5 3 3 2 3 5 6 5 5 3 2 4 8 9 9 8 3 6 3 1 5 5 4 7 10 9 10 13 12 12 13 12 13 16 18 20 21 21 21 20 18 18
4 4 3 3 1 3 2 7 7 3 4 3 3 2 2 3 2 1 1 3 4 6 4 3 4 6 4 3 5 3 2 2 3 4 2 2 3 3 5 4 6 15 13 6 6 5 3 2 2 2 3 6 9 8 5 4 3 5 9 11 10 8 6 7 4 3 5 1 3 8 10 4 3 9 11 12 16 17 18 20 20 22 23 22 22 21 20 19
5 4 1 2 1 1 4 6 2 3 3 3 2 2 2 3 2 0 1 3 1 3 4 4 2 2 5 6 6 4 2 5 3 2 2 1 3 2 2 1 3 9 10 4 3 4 3 2 2 1 3 5 10 11 8 4 4 8 12 13 13 10 7 6 4 3 4 3 3 8 9 2 1 9 14 16 17 18 19 19 19 21 23 23 23 22 21 20
4 4 5 2 1 4 4 3 2 4 2 2 2 2 1 2 2 2 3 4 2 1 1 6 6 0 4 7 6 1 3 6 5 5 4 1 1 1 1 1 2 3 6 4 3 4 3 2 1 3 3 3 7 11 11 6 5 10 14 15 14 10 6 3 4 4 2 4 5 7 5 2 5 13 16 17 18 17 17 18 19 20 21 22 23 22 21 20
3 3 5 2 1 4 3 1 3 3 2 1 2 2 1 2 3 3 3 5 4 3 2 7 8 3 4 5 3 4 4 4 4 6 5 2 1 3 5 5 6 5 3 2 2 3 2 3 1 3 3 2 6 8 8 6 7 7 8 9 8 6 5 3 4 6 5 4 4 2 2 2 7 14 14 13 14 15 17 19 22 22 21 21 22 22 21 20
Wind_Direction
355 355 353 349 346 342 339 335 329 323 315 309 307 311 317 323 326 325 322 318 317 316 316 311 302 296 290 289 286 282 278 268 266 262 255 240 216 219 213 200 201 195 185 184 186 185 181 174 168 164 161 166 174 187 193 206 217 205 292 253 272 263 235 204 168 158 140 142 156 164 155 129 120 120 122 124 125 125 119 122 131 130 139 148 156 158 155 157
5 4 2 360 355 349 345 338 332 327 318 309 299 296 300 307 315 319 318 314 313 316 316 313 306 296 293 291 289 291 285 277 272 261 244 201 205 207 203 195 197 197 186 184 185 185 184 174 168 167 167 167 173 185 189 201 203 194 109 320 258 237 264 213 149 146 149 151 150 155 150 130 129 132 132 130 122 120 109 113 124 124 131 143 153 155 156 161
20 17 14 10 4 359 354 346 339 330 323 314 300 292 293 297 305 313 314 310 309 311 312 314 308 298 296 291 293 296 292 294 281 264 238 206 210 198 199 197 192 192 188 187 188 190 189 177 173 172 168 163 168 181 186 191 196 202 188 305 257 254 314 136 147 152 154 150 141 140 141 128 132 140 142 135 122 119 119 131 133 131 136 145 152 156 159 165
20 19 16 12 7 3 0 355 349 338 329 319 308 294 288 295 304 310 310 307 306 306 308 312 307 299 295 293 293 295 303 311 288 261 237 218 212 198 198 198 191 184 182 187 188 191 187 179 178 174 168 159 174 179 188 196 189 179 182 224 214 217 321 144 148 147 143 146 139 134 134 125 131 142 144 137 124 124 149 153 154 149 147 150 155 158 163 168
14 13 12 11 8 5 3 360 356 350 337 320 315 302 295 302 306 307 307 308 308 306 306 307 305 296 293 296 287 291 316 332 287 214 205 207 208 207 201 197 191 180 180 185 187 188 185 181 176 169 167 159 169 181 208 201 193 171 217 240 219 141 25 136 141 138 136 138 133 132 135 131 126 129 145 144 132 167 165 162 163 157 153 155 158 160 166 169
11 12 13 13 12 9 7 3 1 1 351 332 323 311 309 308 308 310 311 315 314 309 306 302 300 292 290 294 283 283 282 271 98 130 157 187 205 209 203 198 188 179 181 185 187 187 178 175 174 164 158 151 181 201 226 203 201 216 251 256 221 153 126 130 134 135 137 136 132 134 137 131 120 119 140 132 104 157 164 165 161 157 156 157 158 161 167 170
12 13 15 16 16 14 13 9 7 11 7 355 338 319 317 316 323 324 323 325 320 315 308 300 296 287 289 288 280 278 261 260 316 152 155 168 215 208 198 196 188 182 182 185 189 184 172 169 172 161 138 118 218 225 255 209 199 210 281 288 157 136 130 137 134 134 140 141 142 138 133 131 126 126 125 97 117 153 162 163 159 155 156 157 159 163 169 173
11 12 14 15 15 15 17 17 17 20 14 2 353 341 339 337 340 336 334 332 324 320 310 299 293 283 290 282 276 285 272 268 241 201 179 118 223 208 194 192 189 185 183 188 191 182 173 168 168 160 139 191 221 226 252 215 192 209 258 271 138 128 128 139 133 132 134 134 140 132 120 126 133 128 99 95 136 154 160 159 157 155 156 158 161 166 171 175
8 10 13 14 13 13 17 20 20 22 14 5 6 4 1 354 351 347 343 338 329 325 316 301 291 286 289 265 269 291 273 252 215 210 189 111 155 203 197 193 189 188 186 188 192 186 178 171 170 164 160 217 228 260 251 217 193 210 216 167 131 129 135 141 132 131 131 133 140 124 94 116 134 122 82 111 143 154 157 154 156 157 157 160 164 170 173 176
5 5 9 13 14 12 14 19 19 20 20 19 18 12 9 1 355 351 348 345 337 333 325 304 293 294 286 254 237 243 240 225 205 197 179 151 104 168 195 199 194 192 190 190 194 191 184 180 177 174 175 222 232 290 264 210 233 212 182 133 119 122 128 135 126 125 129 135 141 126 98 122 143 133 81 140 148 154 153 150 156 157 159 164 167 173 176 179
2 2 4 9 13 12 11 14 17 21 23 25 22 15 9 358 351 347 348 349 345 343 337 317 306 299 286 253 221 206 199 194 185 180 175 168 146 129 184 203 203 200 197 196 199 196 189 185 181 182 201 264 276 301 275 247 281 159 132 105 102 103 98 111 117 124 127 128 136 125 103 111 149 134 136 151 152 157 154 150 156 157 161 166 169 174 178 182
360 360 1 4 9 11 10 10 15 19 21 24 20 11 2 353 346 342 345 348 349 352 347 338 333 326 309 265 242 227 205 175 171 175 177 165 175 195 188 200 207 211 208 203 202 198 188 180 184 187 193 283 295 307 304 314 308 144 125 98 99 91 78 88 137 144 136 135 139 125 101 116 178 18 146 154 155 158 155 153 157 158 163 168 171 176 179 183
357 360 1 2 5 9 10 11 13 15 19 19 11 4 358 351 343 338 342 347 349 352 349 346 339 338 319 273 255 234 216 198 171 171 181 177 188 209 214 206 207 211 215 213 209 202 187 175 184 192 204 295 309 302 310 319 289 146 113 97 120 93 90 214 180 162 140 147 148 127 115 191 173 122 153 157 158 158 156 157 160 161 165 170 175 178 181 184
355 359 2 2 2 6 11 15 15 14 12 4 357 357 354 349 340 332 333 340 348 352 351 343 331 335 306 279 286 235 215 202 181 176 187 202 204 212 216 212 210 211 212 213 210 204 195 184 185 196 223 271 296 308 317 329 133 135 80 96 121 109 173 195 168 155 133 163 166 91 113 196 153 141 161 163 163 161 158 160 163 165 168 173 178 180 183 186
352 357 2 3 2 4 10 14 14 8 359 351 349 348 348 347 342 333 323 326 340 346 344 336 326 332 307 288 305 222 214 204 200 203 216 222 222 228 221 208 207 210 211 208 196 186 195 198 197 205 244 278 298 320 336 13 77 101 109 123 82 98 173 230 161 152 147 179 201 348 109 197 120 153 167 169 168 165 162 163 166 168 171 175 180 183 186 189
348 354 1 4 2 4 8 9 8 360 349 346 345 344 343 340 338 336 316 310 327 333 332 325 316 324 310 294 64 170 209 213 227 244 236 228 223 231 235 208 198 199 205 201 176 147 169 193 200 219 258 275 275 31 32 36 18 20 109 140 127 115 160 221 165 194 192 159 208 262 150 161 67 158 169 175 173 170 167 165 168 171 174 178 182 185 187 190
344 351 358 3 2 3 3 360 356 351 346 344 343 341 337 331 332 333 310 300 318 322 323 318 314 315 295 286 99 123 75 282 265 266 240 224 223 231 236 198 186 182 173 168 168 150 148 165 176 214 253 249 144 93 71 144 215 247 81 102 118 120 152 170 180 219 192 164 189 236 149 152 116 152 168 179 178 174 172 170 171 173 176 180 183 186 189 191
339 347 355 360 1 360 359 351 344 346 346 344 340 335 333 331 330 325 303 302 318 322 325 325 334 332 236 104 60 6 348 324 257 247 231 219 218 220 212 178 165 160 146 139 164 163 156 155 145 195 306 92 127 117 143 202 196 160 129 105 111 114 149 169 178 186 181 181 177 152 166 180 128 149 168 181 181 180 179 175 175 175 177 181 184 187 191 193
331 340 349 356 358 355 350 341 334 340 344 345 346 341 342 343 334 323 307 311 312 316 326 309 307 300 256 292 311 333 341 309 226 224 217 222 208 201 184 155 153 154 147 132 165 169 158 134 106 171 233 184 179 169 184 213 160 139 143 130 147 137 150 176 172 167 169 177 179 164 183 194 170 167 171 179 184 186 184 179 179 179 180 182 185 190 192 197
324 332 341 350 354 347 338 331 325 335 345 349 358 359 359 356 346 327 322 314 305 302 305 298 286 277 279 292 316 338 345 190 206 212 206 218 187 180 172 163 153 154 154 139 157 176 159 138 174 198 194 186 201 191 174 177 119 125 131 150 173 153 140 172 158 163 166 171 181 165 172 192 188 183 175 177 183 187 187 184 183 183 184 185 187 191 194 200
319 323 332 341 347 342 333 326 319 332 346 352 4 11 10 6 358 321 323 319 318 319 310 306 291 278 281 296 314 329 343 182 195 192 201 219 175 161 174 176 132 137 197 143 125 142 150 166 227 210 188 177 195 197 174 122 78 94 124 150 165 147 149 172 149 168 171 164 160 157 168 193 190 182 172 174 181 191 191 186 186 188 188 188 190 193 196 200
319 316 322 331 338 336 334 333 322 325 343 350 5 12 9 5 351 328 321 308 317 326 324 320 298 281 291 309 317 322 352 182 195 193 203 197 180 170 172 164 123 157 243 124 112 106 137 221 238 214 178 145 128 177 167 123 97 85 108 125 135 155 138 59 114 159 164 120 148 160 167 188 191 175 168 181 189 196 196 191 187 189 189 190 192 193 194 196
323 314 314 321 329 329 329 337 327 319 337 340 350 5 5 360 348 340 328 282 304 328 350 340 307 294 310 334 3 61 130 137 176 190 199 192 187 184 167 149 131 155 151 109 122 127 160 242 233 196 152 124 104 153 127 96 88 85 113 121 164 186 151 81 134 137 90 52 155 164 153 179 197 177 173 194 197 194 197 199 194 192 194 193 195 196 194 194
327 315 309 311 318 322 325 331 327 316 330 329 329 354 359 356 350 340 329 304 289 328 351 345 322 306 315 337 340 337 350 119 144 165 185 190 179 173 175 161 135 142 173 141 129 140 200 237 183 144 143 138 134 156 131 116 142 294 173 151 159 184 171 124 138 134 101 101 157 149 129 221 210 183 170 195 202 197 194 200 203 203 205 199 198 200 198 197
328 319 309 306 309 313 319 326 322 318 331 327 318 343 350 348 345 330 329 352 279 322 346 345 333 322 324 341 309 314 360 190 148 155 182 193 183 166 168 161 141 166 176 129 120 149 235 240 149 119 131 133 129 162 174 149 157 305 236 189 173 174 158 125 131 135 116 169 175 157 154 240 232 192 180 177 193 198 188 195 208 208 212 210 202 202 201 200
327 321 311 305 302 304 312 320 315 320 331 324 311 335 339 336 336 324 333 38 339 322 344 341 342 337 335 353 335 340 25 358 93 170 189 196 195 168 144 145 120 165 162 130 125 178 246 215 144 132 136 121 120 180 222 159 132 289 244 192 168 157 143 141 146 147 138 177 180 171 157 228 269 218 192 170 180 192 184 193 207 208 213 215 205 202 202 202
325 319 312 305 298 296 304 308 307 319 327 318 314 327 329 329 329 318 338 42 353 311 324 316 330 331 326 355 354 111 62 329 31 178 188 185 191 166 156 206 112 156 162 124 141 234 197 129 106 110 120 119 128 202 230 149 125 238 239 162 154 156 156 159 154 148 136 113 157 192 121 111 260 224 167 169 185 192 189 191 200 206 213 215 208 204 202 202
325 317 310 306 297 292 295 296 305 319 322 317 321 322 327 329 322 320 68 67 325 312 318 304 294 290 289 307 285 202 238 312 73 180 192 182 184 147 146 205 171 172 162 124 174 256 196 163 174 146 130 157 181 200 196 154 149 241 216 144 155 159 154 155 143 124 117 103 163 216 152 110 274 241 146 171 196 198 198 193 195 202 209 212 210 206 205 204
324 314 307 305 296 289 288 294 306 318 321 324 325 325 332 335 324 85 76 93 307 317 314 309 307 294 269 245 256 236 244 337 103 146 182 175 181 143 117 204 165 149 112 118 176 249 248 210 196 154 152 201 202 194 173 161 195 232 153 97 87 92 86 93 92 74 66 45 208 205 182 136 272 247 157 172 213 211 201 193 196 201 203 208 209 206 206 205
322 310 304 301 293 285 282 294 306 318 328 328 326 330 337 349 104 67 40 6 307 294 290 305 310 312 351 64 314 263 203 223 193 133 123 150 174 162 87 176 139 112 34 38 151 242 264 258 220 156 189 205 195 188 176 179 192 125 88 78 68 63 58 56 41 57 69 329 241 192 184 137 298 249 181 183 217 203 190 185 193 199 201 205 208 206 205 206
317 304 301 296 290 280 279 293 312 321 327 326 327 334 341 27 81 73 75 271 294 309 318 320 309 337 25 65 358 331 331 258 240 135 118 89 129 103 54 78 80 61 17 358 332 298 307 282 241 208 215 202 165 185 188 191 190 127 88 113 88 39 23 40 18 45 97 252 263 183 168 123 253 247 208 218 246 170 179 185 183 191 198 202 206 207 205 206
312 300 296 295 282 265 267 286 311 319 324 327 331 336 13 92 18 75 247 308 333 315 318 305 314 350 34 61 4 311 311 351 11 90 123 91 90 107 124 165 180 53 352 285 290 331 311 252 234 221 222 196 151 172 253 134 160 137 121 125 99 43 20 39 352 51 170 249 278 162 150 136 251 246 212 225 240 209 185 187 185 188 193 198 203 205 204 204
310 300 296 296 272 250 253 275 304 314 325 330 331 342 100 76 16 240 275 317 331 296 300 303 320 345 80 53 357 313 20 31 7 44 52 64 74 75 239 167 152 128 243 219 284 344 296 275 252 202 230 196 160 157 185 148 159 155 148 140 122 109 116 124 288 9 246 268 317 142 153 205 271 263 226 233 238 219 193 187 189 190 191 195 198 199 200 200
318 321 322 307 244 227 223 257 303 318 332 337 340 55 76 65 257 275 289 262 261 308 324 345 329 344 49 51 313 300 54 24 358 51 46 34 55 48 349 359 60 95 119 159 194 189 177 270 233 195 213 186 171 180 172 151 159 173 161 139 138 145 146 164 193 191 218 255 65 130 165 210 229 259 277 272 248 210 192 184 185 187 189 190 190 190 193 194
346 8 14 85 161 186 195 264 321 334 341 346 16 76 73 141 250 290 258 253 281 318 322 360 20 18 14 354 291 340 55 22 345 45 45 35 48 360 317 328 351 69 113 167 242 190 161 246 246 239 184 161 171 188 153 122 133 203 144 115 149 175 151 134 187 190 165 135 115 166 206 218 201 280 320 325 240 180 172 170 172 177 180 180 179 179 186 192
14 39 76 118 147 177 194 299 330 340 345 359 51 70 97 203 222 197 217 263 324 317 326 357 28 38 351 329 329 356 25 44 28 35 21 8 20 341 290 255 286 79 125 174 224 192 140 267 275 305 174 181 185 182 164 157 172 155 126 159 199 172 132 116 184 279 97 118 196 202 273 311 305 317 348 23 73 136 153 157 163 170 172 173 175 178 186 192
25 50 96 120 159 192 207 298 324 335 348 26 77 73 221 221 198 192 236 299 284 350 68 52 11 36 346 336 342 338 3 35 41 52 50 355 354 327 316 290 263 110 170 195 217 201 145 274 289 232 179 225 197 170 170 175 149 121 166 191 169 95 93 104 126 27 67 144 263 288 249 300 349 243 337 21 57 99 136 150 159 167 170 171 177 183 191 199
23 49 88 118 187 197 208 292 320 333 357 49 54 331 216 253 232 223 274 289 226 35 69 91 353 67 94 20 342 325 353 31 17 68 121 48 351 301 342 321 269 334 300 192 200 319 120 284 295 258 176 272 167 137 127 359 120 132 173 163 127 121 157 121 135 149 132 160 280 308 265 243 195 215 307 27 52 125 130 144 153 162 166 167 176 186 193 201
16 47 68 84 187 193 210 294 312 339 14 58 24 309 214 267 286 317 316 271 116 69 71 146 134 71 81 115 302 321 8 52 39 58 88 66 11 344 29 350 273 324 352 143 155 305 111 116 288 278 247 308 36 96 169 200 53 63 121 138 124 137 161 164 153 155 146 158 233 303 318 252 221 218 172 153 209 160 136 142 143 150 159 163 172 183 191 198
17 65 60 58 172 204 238 289 314 3 37 76 200 232 274 275 305 359 21 70 119 69 84 236 96 64 6 30 295 303 27 53 78 61 56 62 6 322 8 15 286 312 348 92 112 286 42 84 262 291 326 51 124 175 183 176 153 99 104 151 206 87 131 140 100 114 131 146 180 157 253 262 247 228 183 162 175 156 138 132 129 140 152 162 171 180 187 196
26 52 357 32 129 227 239 308 350 43 64 299 218 229 293 318 315 1 30 51 60 78 109 156 134 112 145 40 354 306 47 42 41 66 70 38 31 318 347 355 308 288 351 38 35 350 185 76 240 299 5 85 218 236 192 179 172 153 143 173 175 136 127 120 105 275 116 126 161 158 199 262 270 248 221 151 148 150 136 127 128 135 144 157 170 176 183 190
47 52 331 334 29 225 193 87 33 80 110 271 267 255 309 348 339 355 19 32 36 54 77 104 137 114 117 150 348 38 76 49 6 62 107 32 66 197 325 344 331 287 24 39 303 259 168 86 28 281 294 168 262 296 259 189 161 123 115 154 150 126 122 130 173 213 114 98 120 115 161 267 277 272 99 122 132 131 130 131 127 129 141 154 166 174 179 183
67 84 359 327 173 180 150 54 341 8 174 254 283 317 346 6 3 360 14 23 21 22 39 43 71 71 72 110 67 59 62 54 26 66 139 223 26 297 335 1 9 357 48 37 301 291 122 68 26 306 304 321 314 322 340 87 95 75 37 47 98 125 124 139 169 160 133 151 125 90 196 264 282 65 95 108 117 116 126 137 132 128 137 148 157 165 172 177
74 91 81 40 180 176 151 153 228 291 276 265 12 25 14 36 32 16 9 13 11 14 56 22 352 40 34 49 80 70 48 82 65 39 85 151 319 325 360 20 29 30 30 1 296 334 25 30 51 43 15 12 356 348 350 360 38 56 328 330 9 112 107 114 118 79 111 185 154 136 203 254 293 93 108 117 119 113 119 132 132 129 132 140 145 151 157 164
65 88 59 59 179 184 166 143 169 180 253 183 64 18 355 35 32 24 23 26 26 45 85 360 326 14 10 35 66 38 30 79 74 27 39 359 288 317 2 20 27 27 18 359 323 332 39 41 69 96 126 144 137 36 323 321 332 346 336 339 350 105 119 126 118 87 127 185 149 150 196 224 153 132 134 138 130 118 115 120 124 123 126 134 139 142 149 155
65 92 20 39 165 181 134 16 85 167 187 123 75 16 34 66 6 17 39 40 26 40 59 24 340 16 29 36 52 26 11 22 49 62 36 329 294 303 348 17 23 20 17 15 13 45 103 47 41 95 121 165 196 225 261 310 10 350 341 344 342 333 118 105 106 143 164 150 175 220 177 153 162 158 153 155 144 134 130 125 122 122 123 128 132 135 141 145
65 95 345 23 71 168 50 34 31 76 179 128 109 276 34 29 307 12 34 41 24 36 57 35 17 36 28 30 66 40 357 358 23 43 2 300 269 292 333 24 27 18 18 20 17 45 111 37 5 56 77 64 204 249 289 354 71 30 360 356 342 324 41 105 123 198 155 130 216 243 168 156 176 170 161 163 154 141 139 135 129 127 127 127 128 130 131 132
65 119 101 69 71 187 77 358 354 11 104 100 103 153 46 39 34 24 8 18 26 28 56 35 16 17 342 55 103 68 353 5 12 358 311 314 313 326 351 23 25 16 19 24 21 51 113 62 327 318 23 28 25 12 4 28 88 61 33 18 358 348 44 100 117 160 122 140 219 201 168 170 178 166 158 160 152 142 141 139 134 130 129 130 131 128 126 128
77 120 101 57 158 198 264 311 320 29 79 71 74 85 95 86 78 227 288 17 12 4 50 86 355 355 7 53 102 91 15 61 26 337 294 339 350 1 10 360 356 7 15 29 25 41 104 101 293 295 6 20 14 7 18 40 40 40 38 26 10 7 45 79 82 58 70 82 220 159 147 147 171 155 144 145 148 144 141 139 136 134 134 133 133 131 128 129
72 89 53 24 35 308 329 323 318 112 59 38 78 82 106 114 102 229 18 53 36 325 39 114 189 346 32 53 81 99 160 158 145 298 241 64 13 19 34 294 293 352 9 28 1 7 70 116 277 346 29 3 360 358 0 29 54 38 27 17 11 8 21 48 51 30 53 49 65 116 122 98 145 138 133 142 149 143 139 139 136 136 137 136 134 133 132 131
64 51 26 38 44 360 356 354 70 105 66 38 121 153 158 152 147 127 42 30 82 177 117 151 170 142 36 47 56 80 218 191 199 268 263 204 17 15 32 284 236 339 359 14 357 354 52 103 305 58 66 336 344 352 344 353 51 37 19 8 4 359 351 12 18 5 63 108 102 108 123 198 164 137 135 147 151 143 140 139 134 136 140 140 138 136 136 135
25 8 3 23 43 360 11 17 39 92 143 212 169 162 166 189 180 133 77 12 19 80 133 167 161 110 47 47 16 306 290 285 292 312 310 275 57 73 82 67 67 64 4 348 25 6 55 108 56 66 109 277 334 347 341 2 39 23 358 349 350 345 331 342 17 14 31 88 118 146 218 216 156 144 143 149 151 146 146 144 143 145 145 144 142 139 139 139